Regional Weather Roundup
Issued by NWS

Home | Current Version | Previous Version | Text Only | Print | Product List | Glossary Off
Versions: 1 2 3 4 5 6 7 8 9 10 11 12 13 14 15 16 17 18 19 20 21 22 23 24 25 26 27

000
ASUS45 KTFX 151510
RWRMT
MONTANA REGIONAL WEATHER ROUNDUP
NATIONAL WEATHER SERVICE GREAT FALLS MT
800 AM MST FRI DEC 15 2017

NOTE: "FAIR" INDICATES FEW OR NO CLOUDS BELOW 12000 FEET WITH NO
SIGNIFICANT WEATHER AND/OR OBSTRUCTIONS TO VISIBILITY.

MTZ001>007-043-151600-
WEST OF THE DIVIDE

CITY           SKY/WX    TMP DP  RH WIND       PRES   REMARKS
KALISPELL      CLOUDY    28  25  88 S6        30.08F WCI  22
MISSOULA       CLOUDY    25  24  96 CALM      30.14F
BUTTE          FAIR       8   3  80 CALM      30.07F
MULLAN PASS    FAIR      27  21  78 SW8       30.00F WCI  19
ANACONDA         N/A      9   3  78 CALM      30.05F
DEER LODGE       N/A     12  10  92 CALM      30.09F VSB 0
EUREKA           N/A     30  25  80 MISG      30.08F
HAMILTON         N/A     21  19  93 CALM      30.12F VSB 1/4
LIBBY            N/A     27  25  93 CALM      30.08F
PLAINS           N/A     29  24  81 CALM      30.10
RONAN            N/A     26  23  88 E3        30.10F
$$

MTZ008-052>055-151600-
SOUTHWEST MONTANA

CITY           SKY/WX    TMP DP  RH WIND       PRES   REMARKS
BOZEMAN        FAIR       9   5  84 SE5       30.08S
DILLON         FAIR      28  18  66 S17       30.08F WCI  16
W YELLOWSTONE  CLOUDY    18  16  93 CALM      30.22F
ENNIS          CLOUDY    28  21  74 S26G36    30.13F WCI  13
THREE FORKS      N/A      7   3  83 CALM      30.05F
$$

MTZ009-010-012-014-046-048-049-054-151600-
EAST SLOPES AND CENTRAL MONTANA

CITY           SKY/WX    TMP DP  RH WIND       PRES   REMARKS
CUT BANK       FAIR      40  22  48 W30G36    29.76F
GREAT FALLS    FAIR      44  16  32 SW32G43   29.81F
MALMSTROM AFB  MOCLDY    45  17  32 SW32G40   29.81F
HELENA         FAIR      17  15  92 CALM      30.06F
BOWMANS CRNR   CLOUDY    35  19  51 S30G37    29.85F WCI  21
CHOTEAU          N/A     46  12  25 W12G18    29.84S
FAIRFIELD      MOCLDY    44  14  29 SW14      29.81F
POWER          MOCLDY    42  15  34 SW16G24   29.82F
RAYNESFORD     CLOUDY    53   7  16 SW29G38   29.80F
ULM            CLOUDY    45  17  32 SW16G25   29.85F
$$

MTZ011-013-016-021-045-047-050-051-151600-
NORTH CENTRAL MONTANA

CITY           SKY/WX    TMP DP  RH WIND       PRES   REMARKS
HAVRE          FAIR      42  18  37 SW23      29.73F
LEWISTOWN      FAIR      40  20  44 SW18      29.79F
N BAR RANCH    FAIR      48   7  18 W12G18    29.78S
CHINOOK          N/A     43  18  36 W14       29.70F
DENTON         MOCLDY    50  10  20 W23       29.72F
GEYSER         CLOUDY    47  10  21 W22G28    29.76F
GRASS RANGE    FAIR      44  14  29 W16G22    29.74F
STANFORD       MOCLDY    50   7  17 W21       29.78F
WINIFRED       FAIR      44  13  28 W8        29.76F
$$

MTZ017>020-022>027-061-062-151600-
NORTHEAST MONTANA

CITY           SKY/WX    TMP DP  RH WIND       PRES   REMARKS
GLASGOW        FAIR      26  22  84 W6        29.70F WCI  19
GLENDIVE       FAIR      29  23  78 S3        29.72F
JORDAN           N/A     34  20  56 W9        29.73F WCI  27
SIDNEY         FAIR      28  23  81 S8        29.69F WCI  20
WOLF POINT     FAIR      29  23  78 W10       29.70F WCI  20
MALTA          CLEAR     23  19  86 SW6       29.70F WCI  16
PLENTYWOOD       N/A     30  25  80 CALM      29.63F
POPLAR           N/A     28  21  74 CALM      29.70F
SCOBEY           N/A     32  19  58 S1        29.65
$$

MTZ028>42-056>058-151600-
SOUTHCENTRAL AND SOUTHEAST MONTANA

CITY           SKY/WX    TMP DP  RH WIND       PRES   REMARKS
BAKER          FAIR      29  22  75 W14       29.75F WCI  18
BILLINGS       MOCLDY    39  17  41 SW25      29.84F WCI  28
LIVINGSTON     FAIR      36  20  52 SW36G48   30.00R WCI  22
MILES CITY     FAIR      36  21  54 W13       29.76F WCI  27
BIG TIMBER     CLEAR     39  16  38 W29G39    29.91F WCI  28
EKALAKA          N/A     33  16  50 SW14      29.77  WCI  23
FORSYTH          N/A     43  18  36 SW6       29.78F
LAUREL           N/A     37  18  44 SW24G31   29.85F WCI  26
ROUNDUP          N/A     47  12  24 SW13      29.73F
$$

REGIONAL REPORTS...DAKOTAS

CITY           SKY/WX    TMP DP  RH WIND       PRES   REMARKS
WILLISTON      FAIR      29  25  85 SW8       29.67F WCI  21
MINOT          CLOUDY    31  25  78 S6        29.66F WCI  25
DICKINSON      MOCLDY    33  23  66 W15       29.67F WCI  23
BEACH          FAIR      28  23  80 W16       29.74F WCI  17
CROSBY         CLOUDY    30  27  86 SW12G18   29.63F WCI  21
TIOGA          CLOUDY    28  28 100 SW14      29.64F WCI  17
WATFORD CITY   FAIR      30  25  80 SW8       29.66F WCI  23
BISMARCK       CLOUDY    30  24  78 S5        29.76F
GRAND FORKS    FLURRIES  18  15  88 S8        29.83F WCI   8
FARGO          FLURRIES  19  16  88 SE5       29.84F
BUFFALO SD       N/A     32  22  66 SW9       29.70F WCI  24
RAPID CITY     FAIR      27  16  63 VRB5      29.82F
$$

REGIONAL REPORTS...WYOMING/IDAHO/WASHINGTON

CITY           SKY/WX    TMP DP  RH WIND       PRES   REMARKS
GILLETTE       FAIR      37  15  40 SW14      29.87S WCI  28
SHERIDAN       FAIR      25  15  66 S8        29.83F WCI  16
BUFFALO WY     FAIR      33   5  30 NW5       29.86F
CODY           FAIR      46  10  23 W20G29    29.94F
YELLOWSTONE LA   N/A     14  12  92 CALM      30.23F
IDAHO FALLS    FOG       18  16  92 E3        30.30F VSB 1/2
SALMON         CLOUDY    28  21  75 CALM      30.27F
BOISE          CLOUDY    26  23  88 SE10      30.34F WCI  16
SPOKANE        FRZ DRZL  28  28 100 W7        30.16S VSB 3/4 WCI  21
$$

REGIONAL REPORTS...ALBERTA

CITY           SKY/WX    TMP DP  RH WIND       PRES   REMARKS
EDMONTON       MOCLDY    41  28  60 W13       29.63S
CALGARY        MOCLDY    46  23  39 NW16      29.69R
LETHBRIDGE     MOCLDY    43  21  42 SW31G41   29.67F
MEDICINE HAT   CLOUDY    37  23  56 S10       29.64F WCI  30
$$

REGIONAL REPORTS...SASKATCHEWAN

CITY           SKY/WX    TMP DP  RH WIND       PRES   REMARKS
SWIFT CURRENT  MOCLDY    36  21  55 W14       29.61F WCI  27
REGINA         FLURRIES  32  28  86 W7        29.57S WCI  26
SASKATOON      CLOUDY    34  30  86 SW7       29.54F WCI  28
$$




USA.gov is the U.S. government's official web portal to all federal, state and local government web resources and services.